W0WC Weather Reports


Display with metric or nautical units.
time (UTC)temp
F
wind
direction
speed
MPH
gust
MPH
rain 1hr
in
rain 24hr
in
rain mn
in
humidity
%
barometer
mb
20260503002522 63 2 0.0 0.0 0.00 0.00 0.00 35 1019.6
20260503002019 64 346 0.0 0.0 0.00 0.00 0.00 34 1019.7
20260503001515 64 0 0.0 0.0 0.00 0.00 0.00 33 1019.6
20260503001013 64 1 0.0 1.0 0.00 0.00 0.00 32 1019.5
20260503000510 64 0 1.0 1.0 0.00 0.00 0.00 31 1019.6
20260503000007 64 17 0.0 1.0 0.00 0.00 0.00 32 1019.6
20260502235503 64 344 2.0 2.0 0.00 0.00 0.00 32 1019.6
20260502235001 64 356 1.0 2.0 0.00 0.00 0.00 32 1019.6
20260502234457 64 6 3.0 3.0 0.00 0.00 0.00 31 1019.7
20260502233955 65 331 3.0 4.0 0.00 0.00 0.00 30 1019.7
20260502233450 65 331 4.0 4.0 0.00 0.00 0.00 30 1019.7
20260502232947 65 324 4.0 4.0 0.00 0.00 0.00 29 1019.7
20260502232443 65 346 1.0 1.0 0.00 0.00 0.00 31 1019.7
20260502231940 64 336 4.0 4.0 0.00 0.00 0.00 30 1019.9
20260502231438 64 331 5.0 6.0 0.00 0.00 0.00 30 1019.8
20260502230936 65 341 7.0 8.0 0.00 0.00 0.00 30 1019.8
20260502230433 64 263 2.0 3.0 0.00 0.00 0.00 29 1020.0
20260502225931 64 59 3.0 4.0 0.00 0.00 0.00 29 1020.0
20260502225427 65 323 6.0 7.0 0.00 0.00 0.00 31 1019.8
20260502224924 65 293 4.0 4.0 0.00 0.00 0.00 30 1019.9
20260502224420 64 340 1.0 1.0 0.00 0.00 0.00 31 1020.1
20260502223917 65 1 5.0 6.0 0.00 0.00 0.00 30 1019.9
20260502223415 64 358 4.0 4.0 0.00 0.00 0.00 30 1019.9
20260502222913 65 18 2.0 2.0 0.00 0.00 0.00 29 1019.9
20260502222410 65 322 4.0 6.0 0.00 0.00 0.00 30 1019.9
20260502221911 66 347 3.0 4.0 0.00 0.00 0.00 31 1020.0
20260502221408 65 22 4.0 4.0 0.00 0.00 0.00 28 1019.8
20260502220905 65 287 5.0 7.0 0.00 0.00 0.00 31 1020.0
20260502220400 65 344 5.0 7.0 0.00 0.00 0.00 30 1019.9
20260502215857 65 312 5.0 6.0 0.00 0.00 0.00 32 1019.9
20260502215355 65 28 3.0 4.0 0.00 0.00 0.00 31 1019.9
20260502214851 66 6 4.0 6.0 0.00 0.00 0.00 29 1020.0
20260502214348 66 209 4.0 6.0 0.00 0.00 0.00 30 1020.1
20260502213845 65 315 2.0 2.0 0.00 0.00 0.00 32 1020.1
20260502213342 64 301 2.0 3.0 0.00 0.00 0.00 31 1020.2
20260502212841 65 317 11.0 13.0 0.00 0.00 0.00 29 1020.3
20260502212339 64 29 9.0 11.0 0.00 0.00 0.00 31 1020.2
20260502211836 65 13 7.0 8.0 0.00 0.00 0.00 29 1020.2
20260502211331 65 322 3.0 3.0 0.00 0.00 0.00 32 1020.4
20260502210829 65 10 2.0 3.0 0.00 0.00 0.00 31 1020.3
20260502210326 66 1 5.0 8.0 0.00 0.00 0.00 31 1020.6
20260502205824 65 353 2.0 2.0 0.00 0.00 0.00 33 1020.4
20260502205319 65 287 6.0 8.0 0.00 0.00 0.00 30 1020.5
20260502204817 65 17 4.0 6.0 0.00 0.00 0.00 30 1020.5
20260502204314 64 27 1.0 2.0 0.00 0.00 0.00 30 1020.6
20260502203811 65 351 5.0 7.0 0.00 0.00 0.00 30 1020.5
20260502203309 64 281 3.0 3.0 0.00 0.00 0.00 32 1020.6
20260502202809 65 316 13.0 17.0 0.00 0.00 0.00 29 1020.6
20260502202307 65 326 3.0 3.0 0.00 0.00 0.00 29 1020.6
20260502201805 64 30 3.0 4.0 0.00 0.00 0.00 32 1020.6
20260502201300 64 12 3.0 4.0 0.00 0.00 0.00 33 1020.7
20260502200757 64 291 6.0 8.0 0.00 0.00 0.00 31 1020.8
20260502200253 64 329 6.0 9.0 0.00 0.00 0.00 32 1020.9
20260502195751 64 327 6.0 7.0 0.00 0.00 0.00 34 1020.8
20260502195247 64 43 8.0 10.0 0.00 0.00 0.00 32 1020.9
20260502194744 64 21 1.0 1.0 0.00 0.00 0.00 31 1021.0
20260502194241 64 327 7.0 9.0 0.00 0.00 0.00 32 1021.2
20260502193737 64 298 6.0 8.0 0.00 0.00 0.00 34 1021.2
20260502193235 64 343 3.0 6.0 0.00 0.00 0.00 34 1021.2
20260502192734 64 287 5.0 8.0 0.00 0.00 0.00 34 1021.2
20260502192232 65 336 5.0 6.0 0.00 0.00 0.00 33 1021.0
20260502191729 63 357 4.0 6.0 0.00 0.00 0.00 37 1020.8
20260502191227 64 316 12.0 15.0 0.00 0.00 0.00 34 1021.4
20260502190724 64 17 6.0 8.0 0.00 0.00 0.00 34 1021.4
20260502190221 64 346 7.0 8.0 0.00 0.00 0.00 35 1021.3
20260502185721 63 356 4.0 4.0 0.00 0.00 0.00 38 1021.2
20260502185218 64 345 12.0 15.0 0.00 0.00 0.00 34 1021.2
20260502184714 64 282 10.0 14.0 0.00 0.00 0.00 35 1021.3
20260502184210 63 315 4.0 6.0 0.00 0.00 0.00 37 1021.4
20260502183707 62 326 7.0 8.0 0.00 0.00 0.00 36 1021.5
20260502183202 62 105 3.0 4.0 0.00 0.00 0.00 35 1021.5
20260502182658 62 314 6.0 9.0 0.00 0.00 0.00 34 1021.7
20260502182153 62 347 7.0 9.0 0.00 0.00 0.00 36 1021.7
20260502181651 62 340 9.0 10.0 0.00 0.00 0.00 35 1021.5
20260502181150 62 10 4.0 6.0 0.00 0.00 0.00 36 1021.6
20260502180647 62 332 8.0 10.0 0.00 0.00 0.00 35 1021.7
20260502180144 62 17 4.0 7.0 0.00 0.00 0.00 36 1021.8
20260502170108 61 292 10.0 10.0 0.00 0.00 0.00 37 1022.3
20260502164055 60 338 8.0 9.0 0.00 0.00 0.00 38 1022.1
20260502163550 60 359 2.0 3.0 0.00 0.00 0.00 41 1022.2
20260502163048 60 307 6.0 8.0 0.00 0.00 0.00 39 1022.3
20260502162544 60 2 2.0 3.0 0.00 0.00 0.00 39 1022.1
20260502162042 59 320 3.0 4.0 0.00 0.00 0.00 42 1022.1
20260502161538 59 29 4.0 7.0 0.00 0.00 0.00 39 1022.3
20260502161036 59 331 3.0 4.0 0.00 0.00 0.00 40 1022.4
20260502160534 59 348 9.0 10.0 0.00 0.00 0.00 40 1022.3
20260502151947 58 306 6.0 7.0 0.00 0.00 0.00 43 1022.1
20260502151443 57 31 3.0 4.0 0.00 0.00 0.00 44 1022.3
20260502150941 57 322 6.0 8.0 0.00 0.00 0.00 43 1022.1
20260502150438 57 5 7.0 9.0 0.00 0.00 0.00 43 1022.2
20260502130323 47 359 1.0 1.0 0.00 0.00 0.00 78 1021.8
20260502123809 46 352 1.0 1.0 0.00 0.00 0.00 82 1021.3
20260502123306 46 4 1.0 2.0 0.00 0.00 0.00 85 1021.5
20260502122802 45 6 0.0 0.0 0.00 0.00 0.00 88 1021.0
20260502122258 44 3 1.0 1.0 0.00 0.00 0.00 89 1021.0
20260502121757 43 4 0.0 0.0 0.00 0.00 0.00 91 1021.2
20260502121254 43 5 0.0 0.0 0.00 0.00 0.00 92 1021.0
20260502120751 42 6 0.0 0.0 0.00 0.00 0.00 92 1021.0
20260502120248 42 5 0.0 0.0 0.00 0.00 0.00 92 1020.8
20260502115745 42 5 0.0 0.0 0.00 0.00 0.00 92 1020.8
20260502115242 42 0 1.0 1.0 0.00 0.00 0.00 92 1020.8
20260502114738 42 358 0.0 0.0 0.00 0.00 0.00 91 1020.7
20260502114235 42 358 0.0 0.0 0.00 0.00 0.00 91 1020.9
20260502113732 42 358 0.0 0.0 0.00 0.00 0.00 91 1020.6
20260502113230 42 358 0.0 0.0 0.00 0.00 0.00 90 1020.7
20260502112728 42 357 0.0 0.0 0.00 0.00 0.00 89 1020.3
20260502112225 42 356 0.0 0.0 0.00 0.00 0.00 89 1020.1
20260502111722 42 11 0.0 0.0 0.00 0.00 0.00 88 1020.2
20260502111220 43 345 0.0 1.0 0.00 0.00 0.00 88 1020.2
20260502110717 43 359 0.0 0.0 0.00 0.00 0.00 87 1020.1
20260502110215 43 0 0.0 0.0 0.00 0.00 0.00 86 1020.2
20260502105713 44 1 0.0 0.0 0.00 0.00 0.00 85 1020.0
20260502105209 44 1 0.0 0.0 0.00 0.00 0.00 85 1020.0
20260502104707 44 1 0.0 0.0 0.00 0.00 0.00 84 1020.0
20260502104204 44 1 0.0 0.0 0.00 0.00 0.00 83 1019.9
20260502103701 45 1 0.0 0.0 0.00 0.00 0.00 82 1019.9
20260502103159 46 1 0.0 0.0 0.00 0.00 0.00 80 1019.9
20260502102655 46 2 0.0 1.0 0.00 0.00 0.00 80 1019.7
20260502102152 46 10 0.0 0.0 0.00 0.00 0.00 81 1019.6
20260502101650 46 352 2.0 2.0 0.00 0.00 0.00 81 1019.7
20260502101148 46 14 1.0 2.0 0.00 0.00 0.00 82 1019.6
20260502100646 46 348 2.0 2.0 0.00 0.00 0.00 82 1019.6
20260502100144 46 6 2.0 2.0 0.00 0.00 0.00 83 1019.7
20260502091118 46 2 0.0 0.0 0.00 0.00 0.00 85 1019.6
20260502090615 46 2 0.0 0.0 0.00 0.00 0.00 85 1019.2
20260502090113 46 2 0.0 0.0 0.00 0.00 0.00 85 1019.5
20260502071510 47 350 0.0 0.0 0.00 0.00 0.00 79 1019.1
20260502071008 48 4 0.0 0.0 0.00 0.00 0.00 79 1019.1
20260502070506 48 4 0.0 0.0 0.00 0.00 0.00 77 1019.1
20260502070004 48 10 0.0 0.0 0.00 0.00 0.00 77 1019.0
20260502065502 49 10 0.0 0.0 0.00 0.00 0.00 74 1019.0
20260502065000 49 10 0.0 0.0 0.00 0.00 0.00 71 1019.1
20260502064458 50 10 0.0 0.0 0.00 0.00 0.00 72 1018.8
20260502063954 50 11 0.0 0.0 0.00 0.00 0.00 70 1019.1
20260502063452 51 357 0.0 0.0 0.00 0.00 0.00 68 1018.9
20260502062949 51 16 0.0 0.0 0.00 0.00 0.00 68 1019.1
20260502062446 51 347 0.0 1.0 0.00 0.00 0.00 69 1018.9
20260502061945 51 353 0.0 0.0 0.00 0.00 0.00 68 1019.3
20260502061443 51 353 0.0 0.0 0.00 0.00 0.00 65 1019.1
20260502060939 50 348 0.0 0.0 0.00 0.00 0.00 67 1019.2
20260502060434 50 352 0.0 0.0 0.00 0.00 0.00 67 1019.3
20260502055931 49 354 0.0 0.0 0.00 0.00 0.00 68 1019.2
20260502055429 49 354 0.0 0.0 0.00 0.00 0.00 72 1019.0
20260502054929 49 354 0.0 0.0 0.00 0.00 0.00 72 1019.3
20260502054426 49 354 0.0 0.0 0.00 0.00 0.00 72 1019.3
20260502053923 49 354 0.0 0.0 0.00 0.00 0.00 70 1019.4
20260502053420 49 354 0.0 0.0 0.00 0.00 0.00 74 1019.3
20260502052918 49 354 0.0 0.0 0.00 0.00 0.00 76 1019.2
20260502052416 50 350 0.0 0.0 0.00 0.00 0.00 77 1019.3
20260502051914 50 350 0.0 0.0 0.00 0.00 0.00 73 1019.2
20260502051412 50 345 0.0 0.0 0.00 0.00 0.00 75 1019.1
20260502050908 50 352 0.0 0.0 0.00 0.00 0.00 75 1019.2
20260502050405 50 358 0.0 0.0 0.00 0.00 0.00 77 1019.3
20260502045902 51 352 0.0 0.0 0.00 0.00 0.00 76 1019.1
20260502045359 52 354 0.0 0.0 0.00 0.00 0.00 69 1019.1
20260502044856 52 355 0.0 0.0 0.00 0.00 0.00 65 1018.9
20260502044351 53 355 0.0 0.0 0.00 0.00 0.00 66 1019.1
20260502043849 53 332 0.0 0.0 0.00 0.00 0.00 63 1019.1
20260502043346 53 332 0.0 0.0 0.00 0.00 0.00 64 1019.1
20260502042846 53 332 0.0 0.0 0.00 0.00 0.00 65 1019.2
20260502042343 53 355 0.0 0.0 0.00 0.00 0.00 65 1019.0
20260502041840 53 355 0.0 0.0 0.00 0.00 0.00 62 1019.0
20260502041337 53 355 0.0 0.0 0.00 0.00 0.00 69 1019.3
20260502040835 53 354 0.0 0.0 0.00 0.00 0.00 64 1019.1
20260502040332 52 354 0.0 0.0 0.00 0.00 0.00 67 1019.2
20260502035828 52 354 0.0 0.0 0.00 0.00 0.00 69 1019.4
20260502035325 52 15 0.0 0.0 0.00 0.00 0.00 70 1019.2
20260502034822 53 15 0.0 0.0 0.00 0.00 0.00 72 1019.3
20260502034320 53 0 0.0 0.0 0.00 0.00 0.00 71 1019.5
20260502033818 53 16 0.0 0.0 0.00 0.00 0.00 69 1019.1
20260502033316 53 355 0.0 0.0 0.00 0.00 0.00 69 1019.3
20260502032812 53 355 0.0 0.0 0.00 0.00 0.00 72 1019.2
20260502032308 54 355 0.0 0.0 0.00 0.00 0.00 71 1019.2
20260502031806 54 17 0.0 0.0 0.00 0.00 0.00 66 1019.2
20260502031304 54 355 0.0 0.0 0.00 0.00 0.00 63 1019.3
20260502030803 53 355 0.0 0.0 0.00 0.00 0.00 67 1019.2
20260502030300 53 0 0.0 0.0 0.00 0.00 0.00 67 1019.0
20260502025757 53 352 0.0 0.0 0.00 0.00 0.00 68 1018.9
20260502025255 53 354 0.0 0.0 0.00 0.00 0.00 65 1019.2
20260502024752 53 354 0.0 0.0 0.00 0.00 0.00 66 1019.1
20260502024250 53 351 0.0 0.0 0.00 0.00 0.00 61 1019.0
20260502023748 52 349 0.0 0.0 0.00 0.00 0.00 62 1018.9
20260502023245 53 6 0.0 0.0 0.00 0.00 0.00 63 1018.8
20260502022743 53 6 0.0 0.0 0.00 0.00 0.00 61 1018.8
20260502022239 53 6 0.0 0.0 0.00 0.00 0.00 62 1018.8
20260502021736 53 5 0.0 0.0 0.00 0.00 0.00 62 1018.8
20260502021233 54 11 0.0 0.0 0.00 0.00 0.00 61 1018.7
20260502020730 54 356 0.0 0.0 0.00 0.00 0.00 62 1018.6
20260502020228 54 10 0.0 0.0 0.00 0.00 0.00 61 1018.5
20260502015726 54 21 0.0 0.0 0.00 0.00 0.00 61 1018.3
20260502015221 54 21 0.0 0.0 0.00 0.00 0.00 60 1018.5
20260502014720 55 21 0.0 0.0 0.00 0.00 0.00 59 1018.4
20260502014216 55 17 0.0 0.0 0.00 0.00 0.00 56 1018.1
20260502013712 55 14 0.0 0.0 0.00 0.00 0.00 54 1018.2
20260502013208 55 16 0.0 0.0 0.00 0.00 0.00 57 1018.0
20260502012705 56 347 0.0 0.0 0.00 0.00 0.00 59 1018.3
20260502012203 56 359 0.0 0.0 0.00 0.00 0.00 57 1018.0
20260502011659 56 0 0.0 0.0 0.00 0.00 0.00 57 1017.9
20260502011155 57 0 0.0 0.0 0.00 0.00 0.00 54 1017.9
20260502010653 58 0 0.0 0.0 0.00 0.00 0.00 51 1017.8
20260502010149 59 0 0.0 0.0 0.00 0.00 0.00 51 1017.9
20260502005647 60 0 0.0 0.0 0.00 0.00 0.00 50 1017.6
20260502005144 60 0 0.0 0.0 0.00 0.00 0.00 48 1017.4
20260502004640 61 0 0.0 0.0 0.00 0.00 0.00 41 1017.5
20260502004137 61 2 0.0 0.0 0.00 0.00 0.00 42 1017.3
20260502003635 62 356 0.0 0.0 0.00 0.00 0.00 44 1017.5
20260502003132 63 4 0.0 0.0 0.00 0.00 0.00 39 1017.3